Weather History for Hearne, TX

Change the Weather History Date:

Wednesday, November 7, 2012

  Actual Average (KCLL) Record (KCLL)
Temperature  
Mean Temperature 59 °F 64 °F  
Max Temperature 77 °F 74 °F 88 °F (1915)
Min Temperature 41 °F 54 °F 28 °F (1993)
Degree Days  
Heating Degree Days 6 4  
Month to date heating degree days 24  
Since 1 July heating degree days 61  
Cooling Degree Days 0 3  
Month to date cooling degree days 24  
Year to date cooling degree days 3036  
Growing Degree Days 9 (Base 50)    
Moisture  
Dew Point 40 °F    
Average Humidity 57    
Maximum Humidity 100    
Minimum Humidity 21    
Precipitation  
Precipitation 0.00 in 0.11 in 2.21 in (1974)
Month to date precipitation 0.80  
Year to date precipitation 34.41  
Sea Level Pressure  
Sea Level Pressure 30.12 in    
Wind  
Wind Speed 0 mph (North)    
Max Wind Speed 0 mph    
Max Gust Speed -    
Visibility 10 miles    
Events      
T = Trace of Precipitation, MM = Missing Value Source: NWS Daily Summary

Daily Weather History Graph

Daily Weather History Graph

Search for Another Location

Airport:

Trip Planner

Search our weather history database for the weather conditions in past years. The results will help you decide how hot, cold, wet, or windy it might be!

Date:

Astronomy

Nov. 07, 2012 Rise Set
Actual Time 6:46 AM CST 5:33 PM CST
Civil Twilight 6:21 AM CST 5:58 PM CST
Nautical Twilight 5:52 AM CST 6:27 PM CST
Astronomical Twilight 5:24 AM CST 6:55 PM CST
Moon 12:08 AM CST (11/7) 1:18 PM CST (11/7)
Length of Visible Light 11h 36m
Length of Day
10h 46m
Last Quarter, 43% of the Moon is Illuminated
Nov 7
Last Quarter
Nov 13
New
Nov 20
First Quarter
Nov 28
Full
Dec 6
Last Quarter

Hourly Weather History & Observations

Time (CST) Temp. Dew Point Humidity Pressure Visibility Wind Dir Wind Speed Gust Speed Precip Events Conditions
12:15 AM 46.4 °F 44.6 °F 93% 30.12 in 10.0 mi Calm Calm - N/A   Clear
12:55 AM 46.4 °F 42.8 °F 87% 30.12 in 10.0 mi Calm Calm - N/A   Clear
1:15 AM 46.4 °F 44.6 °F 93% 30.12 in 10.0 mi Calm Calm - N/A   Clear
1:35 AM 46.4 °F 42.8 °F 87% 30.12 in 10.0 mi Calm Calm - N/A   Clear
1:55 AM 44.6 °F 42.8 °F 93% 30.13 in 10.0 mi Calm Calm - N/A   Clear
2:15 AM 44.6 °F 42.8 °F 93% 30.13 in 10.0 mi Calm Calm - N/A   Clear
2:35 AM 44.6 °F 42.8 °F 93% 30.12 in 10.0 mi Calm Calm - N/A   Clear
2:55 AM 44.6 °F 42.8 °F 93% 30.12 in 10.0 mi Calm Calm - N/A   Clear
3:15 AM 42.8 °F 41.0 °F 93% 30.12 in 10.0 mi Calm Calm - N/A   Clear
3:35 AM 44.6 °F 41.0 °F 87% 30.12 in 10.0 mi Calm Calm - N/A   Clear
3:55 AM 44.6 °F 41.0 °F 87% 30.13 in 10.0 mi Calm Calm - N/A   Clear
4:15 AM 44.6 °F 41.0 °F 87% 30.13 in 10.0 mi Calm Calm - N/A   Clear
4:35 AM 42.8 °F 41.0 °F 93% 30.13 in 10.0 mi Calm Calm - N/A   Clear
4:55 AM 42.8 °F 41.0 °F 93% 30.13 in 10.0 mi Calm Calm - N/A   Clear
5:15 AM 41.0 °F 41.0 °F 100% 30.13 in 10.0 mi Calm Calm - N/A   Clear
5:35 AM 42.8 °F 41.0 °F 93% 30.14 in 10.0 mi Calm Calm - N/A   Clear
6:15 AM 41.0 °F 37.4 °F 87% 30.15 in 10.0 mi Calm Calm - N/A   Clear
6:35 AM 41.0 °F 39.2 °F 93% 30.15 in 10.0 mi Calm Calm - N/A   Clear
7:15 AM 42.8 °F 39.2 °F 87% 30.17 in 10.0 mi Calm Calm - N/A   Clear
7:55 AM 46.4 °F 42.8 °F 87% 30.18 in 10.0 mi Calm Calm - N/A   Clear
8:15 AM 50.0 °F 44.6 °F 82% 30.19 in 10.0 mi Calm Calm - N/A   Clear
8:35 AM 51.8 °F 46.4 °F 82% 30.19 in 10.0 mi Calm Calm - N/A   Clear
8:55 AM 55.4 °F 46.4 °F 72% 30.19 in 10.0 mi Calm Calm - N/A   Clear
9:15 AM 59.0 °F 46.4 °F 63% 30.19 in 10.0 mi Calm Calm - N/A   Clear
9:55 AM 64.4 °F 42.8 °F 45% 30.19 in 10.0 mi Calm Calm - N/A   Clear
10:15 AM 68.0 °F 42.8 °F 40% 30.19 in 10.0 mi Calm Calm - N/A   Clear
10:35 AM 69.8 °F 39.2 °F 33% 30.19 in 10.0 mi Calm Calm - N/A   Clear
10:55 AM 71.6 °F 35.6 °F 27% 30.19 in 10.0 mi Calm Calm - N/A   Clear
11:15 AM 71.6 °F 37.4 °F 29% 30.18 in 10.0 mi Calm Calm - N/A   Clear
11:35 AM 71.6 °F 35.6 °F 27% 30.17 in 10.0 mi Calm Calm - N/A   Clear
11:55 AM 73.4 °F 35.6 °F 25% 30.16 in 10.0 mi Calm Calm - N/A   Clear
12:15 PM 73.4 °F 33.8 °F 23% 30.14 in 10.0 mi Calm Calm - N/A   Clear
12:55 PM 77.0 °F 33.8 °F 21% 30.12 in 10.0 mi Calm Calm - N/A   Clear
1:15 PM 75.2 °F 33.8 °F 22% 30.11 in 10.0 mi Calm Calm - N/A   Clear
1:35 PM 77.0 °F 33.8 °F 21% 30.10 in 10.0 mi Calm Calm - N/A   Clear
1:55 PM 77.0 °F 33.8 °F 21% 30.10 in 10.0 mi Calm Calm - N/A   Clear
2:15 PM 77.0 °F 35.6 °F 22% 30.09 in 10.0 mi Calm Calm - N/A   Clear
2:35 PM 77.0 °F 35.6 °F 22% 30.09 in 7.0 mi Calm Calm - N/A   Clear
2:55 PM 77.0 °F 35.6 °F 22% 30.09 in 7.0 mi Calm Calm - N/A   Clear
3:15 PM 77.0 °F 37.4 °F 24% 30.08 in 10.0 mi Calm Calm - N/A   Clear
3:35 PM 77.0 °F 37.4 °F 24% 30.08 in 7.0 mi Calm Calm - N/A   Clear
3:55 PM 77.0 °F 37.4 °F 24% 30.08 in 10.0 mi Calm Calm - N/A   Clear
4:15 PM 77.0 °F 37.4 °F 24% 30.08 in 10.0 mi Calm Calm - N/A   Clear
4:35 PM 77.0 °F 37.4 °F 24% 30.08 in 10.0 mi Calm Calm - N/A   Clear
4:55 PM 75.2 °F 37.4 °F 25% 30.08 in 10.0 mi Calm Calm - N/A   Clear
5:15 PM 73.4 °F 41.0 °F 31% 30.08 in 10.0 mi Calm Calm - N/A   Clear
5:35 PM 68.0 °F 42.8 °F 40% 30.08 in 10.0 mi Calm Calm - N/A   Clear
5:55 PM 64.4 °F 44.6 °F 49% 30.08 in 10.0 mi Calm Calm - N/A   Clear
6:15 PM 60.8 °F 44.6 °F 55% 30.09 in 10.0 mi Calm Calm - N/A   Clear
6:35 PM 59.0 °F 44.6 °F 59% 30.09 in 10.0 mi Calm Calm - N/A   Clear
6:55 PM 55.4 °F 44.6 °F 67% 30.10 in 10.0 mi Calm Calm - N/A   Clear
7:15 PM 59.0 °F 44.6 °F 59% 30.10 in 10.0 mi Calm Calm - N/A   Clear
7:35 PM 59.0 °F 42.8 °F 55% 30.10 in 10.0 mi Calm Calm - N/A   Clear
7:55 PM 60.8 °F 41.0 °F 48% 30.11 in 10.0 mi Calm Calm - N/A   Clear
8:15 PM 60.8 °F 41.0 °F 48% 30.11 in 10.0 mi Calm Calm - N/A   Clear
8:55 PM 60.8 °F 39.2 °F 45% 30.12 in 10.0 mi Calm Calm - N/A   Clear
9:15 PM 59.0 °F 41.0 °F 51% 30.12 in 10.0 mi Calm Calm - N/A   Clear
9:35 PM 57.2 °F 41.0 °F 55% 30.12 in 10.0 mi Calm Calm - N/A   Clear
9:55 PM 53.6 °F 41.0 °F 62% 30.12 in 10.0 mi Calm Calm - N/A   Clear
10:15 PM 57.2 °F 39.2 °F 51% 30.12 in 10.0 mi Calm Calm - N/A   Clear
10:35 PM 55.4 °F 41.0 °F 58% 30.12 in 10.0 mi Calm Calm - N/A   Clear
10:55 PM 55.4 °F 39.2 °F 54% 30.11 in 10.0 mi Calm Calm - N/A   Clear
11:15 PM 55.4 °F 41.0 °F 58% 30.11 in 10.0 mi Calm Calm - N/A   Clear
11:55 PM 55.4 °F 41.0 °F 58% 30.11 in 10.0 mi Calm Calm - N/A   Clear